Погода в Телятниках

Россия / Рязанская область     53°38′07″N   40°58′55″E
темп.,
°C
ветер,
м/с
пор.,
м/с
влажн.,
%
обл.,
%
осадки,
мм/ч
давл.,
гПа
погр.,
м
7 марта, вс
вс700:00−13з46920 0.0 101692
03:00−14зюз47920 0.0 101596
06:00−14юз48943 0.0 1014129
09:00−9юз7158851 0.0 1010460
12:00−6юз101693100 0.3 1007891
15:00−4юз111893100 1.4 10021243
18:00−3юз91694100 1.9 9981022
21:00−2юз111992100 2.4 9951140
8 марта, пн
пн800:00−4з61295100 0.9 996556
03:00−8зюз7148481 1.2 999351
06:00−9зюз5138825 0.0 999300
09:00−7зюз6139061 0.0 999580
12:00−4з91389100 0.4 9991274
15:00−5зсз81177100 0.7 10021224
18:00−8з5108717 0.0 1005207
21:00−12з34928 0.0 100859
9 марта, вт
вт900:00−13зсз23910 0.0 100921
03:00−14з239623 0.0 101122
06:00−12сз349699 0.3 1011113
09:00−14ссз469495 0.3 1013243
12:00−11ссз469194 0.0 1014511
15:00−10сз568897 0.1 1015740
18:00−13сз4894100 0.1 1016240
21:00−15сз489699 0.2 1019193
10 марта, ср
ср1000:00−19ссз359799 0.1 102096
03:00−22сз349859 0.1 102273
06:00−24сз469947 0.0 102393
09:00−23сз479647 0.0 1025236
12:00−19сз469159 0.0 1026396
15:00−17ссз468856 0.0 1026486
18:00−20сз239420 0.0 102720
21:00−22ссз239610 0.0 102920
11 марта, чт
чт1100:00−23с22960 0.0 103020
03:00−25с12970 0.0 103120
06:00−26ссз22950 0.0 103219
09:00−22сз22920 0.0 103389
12:00−17сз23820 0.0 1032259
15:00−14зсз23820 0.0 1032339
18:00−18з23900 0.0 103320
21:00−20зсз22950 0.0 103420